Flag for Ukraine Weather past 2 weeks in Kyiv, Ukraine

Now
39 °F

Clear.


Feels Like: 30 °F
Forecast: 22 / 36 °F
Wind: 17 mph from West

Location: Kyiv

Current Time: Dec 25, 2014 at 7:51:00 PM

Latest Report: Dec 25, 2014 at 7:30 PM


Visibility: 10 mi

Pressure: 29.80 "Hg

Humidity: 70%

Dew point: 30 °F

Location of KyivLocation

Historic Weather in Kyiv — Graph

°F

Kyiv temperature yesterday

Maximum temperature yesterday: 46 °F (at 9:30 PM)
Minimum temperature yesterday: 39 °F (at 3:00 AM)
Average temperature yesterday: 43 °F

Past Weeks' High & Low Weather Summary

 TemperatureHumidityPressure
High46 °F (Dec 20, 11:00 AM)100% (Dec 10, 6:00 PM)30.18 "Hg (Dec 10, 6:00 PM)
Low27 °F (Dec 14, 5:30 AM)61% (Dec 14, 1:30 PM)29.47 "Hg (Dec 23, 1:30 AM)
Average36 °F89%29.89 "Hg
* Reported Dec 10 6:00 PM — Dec 25 6:30 PM, Kyiv, Weather by CustomWeather, © 2014

Note: Actual official high and low records may vary slightly from our data, if they occured in-between our weather recording intervals... More about our weather records

Advertising

Kyiv weather history for previous 24 hours

 ConditionsComfort  
Time TempWeatherWind HumidityBarometerVisibility
6:30 PM
Dec 25
39 °FPassing clouds.17 mph70%29.80 "HgN/A
6:00 PM39 °FClear.17 mph70%29.80 "Hg10 mi
5:30 PM39 °FClear.15 mph70%29.77 "Hg10 mi
5:00 PM41 °FClear.15 mph66%29.77 "Hg10 mi
4:30 PM41 °FPassing clouds.15 mph66%29.77 "HgN/A
4:00 PM41 °FPartly cloudy.20 mph66%29.77 "HgN/A
3:30 PM41 °FBroken clouds.17 mph66%29.74 "HgN/A
3:00 PM41 °FBroken clouds.17 mph61%29.74 "HgN/A
2:30 PM43 °FPartly sunny.20 mph61%29.74 "HgN/A
2:00 PM43 °FPartly sunny.17 mph61%29.74 "HgN/A
1:30 PM43 °FPartly sunny.20 mph61%29.71 "HgN/A
1:00 PM43 °FPartly sunny.20 mph66%29.71 "HgN/A
12:30 PM45 °FPartly sunny.17 mph66%29.71 "HgN/A
12:00 PM45 °FPartly sunny.20 mph71%29.71 "HgN/A
11:30 AM45 °FPartly sunny.17 mph71%29.71 "HgN/A
11:00 AM45 °FBroken clouds.20 mph76%29.71 "HgN/A
10:30 AM45 °FBroken clouds.17 mph76%29.71 "HgN/A
10:00 AM43 °FScattered clouds.15 mph87%29.71 "HgN/A
9:30 AM41 °FPartly sunny.15 mph87%29.71 "HgN/A
9:00 AM43 °FLight rain. Partly sunny.22 mph81%29.71 "HgN/A
8:30 AM43 °FBroken clouds.17 mph81%29.68 "HgN/A
8:00 AM43 °FBroken clouds.20 mph81%29.68 "HgN/A
7:30 AM43 °FPartly cloudy.20 mph81%29.68 "HgN/A
7:00 AM43 °FPartly cloudy.20 mph81%29.68 "HgN/A
6:30 AM43 °FPassing clouds.20 mph81%29.65 "HgN/A
5:30 AM45 °FOvercast.17 mph76%29.65 "HgN/A
5:00 AM45 °FOvercast.20 mph76%29.65 "HgN/A
4:30 AM45 °FOvercast.20 mph76%29.65 "HgN/A
4:00 AM45 °FPassing clouds.22 mph76%29.65 "HgN/A
3:30 AM45 °FPassing clouds.20 mph76%29.65 "HgN/A
3:00 AM45 °FPassing clouds.22 mph76%29.68 "HgN/A
2:30 AM45 °FPassing clouds.20 mph76%29.68 "HgN/A
2:00 AM45 °FPassing clouds.17 mph76%29.68 "HgN/A
1:30 AM45 °FPartly cloudy.17 mph76%29.68 "HgN/A
1:00 AM45 °FPassing clouds.15 mph76%29.68 "HgN/A
12:30 AM45 °FClear.15 mph76%29.68 "Hg10 mi
12:00 AM46 °FClear.17 mph71%29.68 "Hg10 mi
11:30 PM
Dec 24
46 °FPassing clouds.15 mph76%29.71 "HgN/A
11:00 PM46 °FClear.15 mph76%29.71 "Hg10 mi
10:30 PM46 °FClear.17 mph76%29.71 "Hg10 mi
10:00 PM46 °FPassing clouds.17 mph82%29.71 "HgN/A
9:30 PM46 °FLight rain. Overcast.15 mph82%29.71 "HgN/A
9:00 PM45 °FOvercast.13 mph93%29.74 "HgN/A
8:30 PM45 °FLight rain. Overcast.13 mph93%29.74 "HgN/A
8:00 PM45 °FLight rain. Low clouds.10 mph93%29.74 "HgN/A
7:30 PM43 °FLight rain. Low clouds.10 mph93%29.74 "HgN/A
7:00 PM43 °FLight rain. Low clouds.8 mph93%29.77 "HgN/A
Weather by CustomWeather, © 2014

See weather overviewHow to use our weather pages